Date String (YYYY-MM-DD hh:mm:ss) UTC,Instrument flags,Ambient pressure (hPa),Sample flow (lpm),Bypass flow (lpm),Sample temperature (°C),Ambient temperature (°C),ASC tube jacket temperature (°C),LED temperature (°C),Box temperature (°C),Sample RH (%),Span deviation,Mass concentration (μg/m³),Mass concentration (μg/m³),Mass concentration (μg/m³)
DateTimeUTC,F1_M11,P_M11,Q1_M11,Q2_M11,T1_M11,T2_M11,T3_M11,T4_M11,T5_M11,U1_M11,ZSPAN_M11,X0_M11,X2_M11,X1_M11
2022-04-08 03:00:00,,0833.4,5.01,0.00,26.2,25.3,00.0,35.2,28.0,05.6,0000.0,0007.99,0002.33,0001.14
2022-04-08 03:01:00,,0833.4,5.01,0.00,26.2,25.3,00.0,35.2,28.0,05.6,0000.0,0007.80,0002.28,0001.14
2022-04-08 03:02:00,,0833.4,5.00,0.00,26.2,25.3,00.0,35.2,28.0,05.6,0000.0,0007.71,0002.33,0001.15
2022-04-08 03:03:00,,0833.4,5.01,0.00,26.2,25.3,00.0,35.2,28.0,05.6,0000.0,0007.96,0002.38,0001.16
2022-04-08 03:04:00,,0833.4,4.99,0.00,26.2,25.3,00.0,35.2,28.0,05.6,0000.0,0008.13,0002.41,0001.17
2022-04-08 03:05:00,,0833.4,5.00,0.00,26.2,25.3,00.0,35.2,28.0,05.6,0000.0,0008.29,0002.38,0001.17
2022-04-08 03:06:00,,0833.4,5.00,0.00,26.2,25.3,00.0,35.2,28.0,05.5,0000.0,0008.46,0002.41,0001.18
2022-04-08 03:07:00,,0833.5,5.02,0.00,26.2,25.3,00.0,35.2,28.0,05.6,0000.0,0008.76,0002.42,0001.17
2022-04-08 03:08:00,,0833.4,5.00,0.00,26.2,25.3,00.0,35.1,28.0,05.6,0000.0,0008.94,0002.44,0001.18
2022-04-08 03:09:00,,0833.5,5.00,0.00,26.2,25.3,00.0,35.1,27.9,05.6,0000.0,0008.56,0002.35,0001.19
2022-04-08 03:10:00,,0833.6,5.00,0.00,26.2,25.3,00.0,35.1,27.9,05.6,0000.0,0009.23,0002.40,0001.21
2022-04-08 03:11:00,,0833.6,5.00,0.00,26.2,25.2,00.0,35.1,28.0,05.6,0000.0,0009.64,0002.43,0001.23
2022-04-08 03:12:00,,0833.6,4.99,0.00,26.2,25.2,00.0,35.1,28.0,05.5,0000.0,0009.70,0002.53,0001.26
2022-04-08 03:13:00,,0833.6,5.00,0.00,26.2,25.2,00.0,35.1,28.0,05.5,0000.0,0009.92,0002.54,0001.26
2022-04-08 03:14:00,,0833.6,4.99,0.00,26.2,25.2,00.0,35.1,27.9,05.5,0000.0,0010.41,0002.58,0001.26
2022-04-08 03:15:00,,0833.6,4.99,0.00,26.2,25.2,00.0,35.1,27.9,05.5,0000.0,0010.71,0002.63,0001.27
2022-04-08 03:16:00,,0833.6,4.99,0.00,26.2,25.2,00.0,35.1,27.9,05.5,0000.0,0010.71,0002.70,0001.29
2022-04-08 03:17:00,,0833.6,5.00,0.00,26.2,25.2,00.0,35.1,28.0,05.5,0000.0,0010.75,0002.69,0001.31
2022-04-08 03:18:00,,0833.6,5.00,0.00,26.2,25.2,00.0,35.1,28.0,05.5,0000.0,0010.38,0002.65,0001.30
2022-04-08 03:19:00,,0833.6,5.02,0.00,26.2,25.2,00.0,35.1,28.0,05.5,0000.0,0010.10,0002.66,0001.29
2022-04-08 03:20:00,,0833.7,5.00,0.00,26.2,25.2,00.0,35.1,28.0,05.6,0000.0,0010.02,0002.68,0001.30
2022-04-08 03:21:00,,0833.6,5.00,0.00,26.2,25.3,00.0,35.1,28.0,05.6,0000.0,0009.41,0002.67,0001.30
2022-04-08 03:22:00,,0833.6,4.99,0.00,26.2,25.3,00.0,35.1,28.0,05.6,0000.0,0008.87,0002.66,0001.29
2022-04-08 03:23:00,,0833.6,5.00,0.00,26.2,25.3,00.0,35.1,28.0,05.6,0000.0,0009.04,0002.62,0001.28
2022-04-08 03:24:00,,0833.6,5.00,0.00,26.2,25.3,00.0,35.1,28.0,05.6,0000.0,0009.02,0002.62,0001.27
2022-04-08 03:25:00,,0833.6,5.00,0.00,26.2,25.3,00.0,35.1,28.0,05.6,0000.0,0008.87,0002.64,0001.29
2022-04-08 03:26:00,,0833.7,5.00,0.00,26.2,25.3,00.0,35.1,28.0,05.6,0000.0,0008.93,0002.65,0001.29
2022-04-08 03:27:00,,0833.7,5.00,0.00,26.2,25.3,00.0,35.1,28.0,05.6,0000.0,0009.17,0002.73,0001.29
2022-04-08 03:28:00,,0833.7,5.00,0.00,26.2,25.3,00.0,35.1,28.0,05.6,0000.0,0009.02,0002.76,0001.29
2022-04-08 03:29:00,,0833.7,5.00,0.00,26.2,25.1,00.0,35.1,27.9,05.7,0000.0,0009.05,0002.79,0001.30
2022-04-08 03:30:00,,0833.7,5.00,0.00,26.1,25.1,00.0,35.1,27.9,05.7,0000.0,0009.10,0002.77,0001.32
2022-04-08 03:31:00,,0833.7,4.99,0.00,26.1,25.0,00.0,35.1,27.8,05.7,0000.0,0009.18,0002.81,0001.33
2022-04-08 03:32:00,,0833.8,5.02,0.00,26.1,25.0,00.0,35.0,27.8,05.8,0000.0,0009.61,0002.82,0001.31
2022-04-08 03:33:00,,0833.7,5.00,0.00,26.0,25.0,00.0,35.0,27.7,05.8,0000.0,0009.53,0002.83,0001.31
2022-04-08 03:34:00,,0833.8,5.00,0.00,26.0,25.0,00.0,35.0,27.7,05.8,0000.0,0009.07,0002.78,0001.30
2022-04-08 03:35:00,,0833.8,5.00,0.00,26.0,25.0,00.0,35.0,27.7,05.8,0000.0,0008.91,0002.76,0001.30
2022-04-08 03:36:00,,0833.8,5.00,0.00,26.0,25.0,00.0,35.0,27.7,05.8,0000.0,0008.37,0002.70,0001.30
2022-04-08 03:37:00,,0833.9,5.00,0.00,26.0,25.0,00.0,35.0,27.7,05.8,0000.0,0008.05,0002.72,0001.30
2022-04-08 03:38:00,,0833.9,5.01,0.00,26.0,25.0,00.0,35.0,27.7,05.8,0000.0,0007.70,0002.63,0001.28
2022-04-08 03:39:00,,0834.0,5.00,0.00,26.0,25.0,00.0,35.0,27.7,05.8,0000.0,0007.81,0002.66,0001.27
2022-04-08 03:40:00,,0833.9,4.98,0.00,26.0,25.0,00.0,35.0,27.7,05.8,0000.0,0007.83,0002.67,0001.26
2022-04-08 03:41:00,,0833.9,5.00,0.00,26.0,25.0,00.0,35.0,27.7,05.9,0000.0,0007.77,0002.72,0001.25
2022-04-08 03:42:00,,0833.9,4.99,0.00,26.0,25.0,00.0,35.0,27.7,05.9,0000.0,0008.03,0002.75,0001.25
2022-04-08 03:43:00,,0834.0,5.00,0.00,26.0,25.0,00.0,35.0,27.7,05.9,0000.0,0007.68,0002.72,0001.25
2022-04-08 03:44:00,,0834.0,4.99,0.00,26.0,25.0,00.0,34.9,27.7,05.9,0000.0,0007.77,0002.72,0001.25
2022-04-08 03:45:00,,0834.0,5.00,0.00,25.9,25.0,00.0,34.9,27.7,05.9,0000.0,0008.11,0002.73,0001.24
2022-04-08 03:46:00,,0834.0,5.00,0.00,25.9,25.0,00.0,34.9,27.7,05.9,0000.0,0007.89,0002.75,0001.23
2022-04-08 03:47:00,,0834.0,4.99,0.00,25.9,25.0,00.0,34.9,27.7,05.9,0000.0,0007.97,0002.83,0001.23
2022-04-08 03:48:00,,0834.0,5.00,0.00,25.9,25.0,00.0,34.9,27.6,05.9,0000.0,0008.11,0002.80,0001.23
2022-04-08 03:49:00,,0834.0,5.00,0.00,25.9,25.0,00.0,34.9,27.7,05.9,0000.0,0008.13,0002.76,0001.23
2022-04-08 03:50:00,,0834.0,5.00,0.00,25.9,24.9,00.0,34.9,27.6,05.9,0000.0,0007.96,0002.68,0001.22
2022-04-08 03:51:00,,0834.0,5.00,0.00,25.9,24.9,00.0,34.9,27.6,05.9,0000.0,0007.77,0002.64,0001.22
2022-04-08 03:52:00,,0834.0,5.01,0.00,25.9,24.9,00.0,34.9,27.6,06.0,0000.0,0007.77,0002.60,0001.22
2022-04-08 03:53:00,,0834.0,5.01,0.00,25.8,24.8,00.0,34.9,27.6,06.0,0000.0,0007.51,0002.52,0001.20
2022-04-08 03:54:00,,0834.0,5.00,0.00,25.8,24.8,00.0,34.8,27.6,06.0,0000.0,0007.38,0002.54,0001.20
2022-04-08 03:55:00,,0834.0,5.01,0.00,25.8,24.7,00.0,34.8,27.5,06.0,0000.0,0007.84,0002.58,0001.21
2022-04-08 03:56:00,,0834.0,4.99,0.00,25.8,24.6,00.0,34.8,27.4,06.0,0000.0,0007.69,0002.63,0001.23
2022-04-08 03:57:00,,0834.0,5.00,0.00,25.7,24.5,00.0,34.8,27.4,06.0,0000.0,0007.35,0002.66,0001.25
2022-04-08 03:58:00,,0834.0,4.99,0.00,25.7,24.4,00.0,34.8,27.3,06.1,0000.0,0007.56,0002.64,0001.26
2022-04-08 03:59:00,,0834.0,4.99,0.00,25.6,24.3,00.0,34.7,27.3,06.1,0000.0,0008.04,0002.65,0001.25
